Radiation Dose at Monitoring Post of Fukushima Daini Nuclear Power Station
Date,Time,MP-1(microSv/h),MP-2(microSv/h),MP-3(microSv/h),MP-4(microSv/h),MP-5(microSv/h),MP-6(microSv/h),MP-7(microSv/h),Wind Direction,Wind Velocity(m/s),Rain
2019/05/21,00:00,0.200,0.187,0.304,0.288,0.274,0.152,0.092,south,12.2,Yes
2019/05/21,00:10,0.200,0.188,0.307,0.288,0.274,0.151,0.093,south,12.4,No
2019/05/21,00:20,0.199,0.188,0.305,0.289,0.276,0.152,0.092,south,13.4,No
2019/05/21,00:30,0.200,0.188,0.306,0.286,0.274,0.151,0.093,south-southeast,10.9,No
2019/05/21,00:40,0.200,0.187,0.304,0.288,0.276,0.152,0.092,south,12.3,No
2019/05/21,00:50,0.200,0.188,0.307,0.287,0.274,0.152,0.092,south,12.5,Yes
2019/05/21,01:00,0.200,0.188,0.305,0.288,0.276,0.152,0.093,south,11.0,No
2019/05/21,01:10,0.200,0.188,0.305,0.286,0.274,0.151,0.092,south,12.7,Yes
2019/05/21,01:20,0.200,0.187,0.305,0.290,0.276,0.153,0.093,south,12.2,No
2019/05/21,01:30,0.200,0.188,0.306,0.287,0.273,0.152,0.093,south,9.5,No
2019/05/21,01:40,0.200,0.187,0.306,0.288,0.276,0.152,0.093,south,10.0,Yes
2019/05/21,01:50,0.199,0.189,0.304,0.286,0.274,0.152,0.092,south,10.1,Yes
2019/05/21,02:00,0.200,0.188,0.305,0.289,0.275,0.152,0.092,south,10.6,No
2019/05/21,02:10,0.199,0.187,0.305,0.287,0.275,0.153,0.093,south,9.8,No
2019/05/21,02:20,0.201,0.187,0.306,0.289,0.275,0.151,0.093,south,11.2,No
2019/05/21,02:30,0.199,0.189,0.305,0.285,0.273,0.153,0.093,south,10.7,No
2019/05/21,02:40,0.200,0.187,0.304,0.288,0.274,0.152,0.092,south,10.1,No
2019/05/21,02:50,0.198,0.188,0.306,0.286,0.274,0.153,0.093,south,10.0,Yes
2019/05/21,03:00,0.200,0.188,0.305,0.289,0.275,0.151,0.093,south,12.4,Yes
2019/05/21,03:10,0.199,0.188,0.306,0.286,0.274,0.153,0.092,south,12.8,Yes
2019/05/21,03:20,0.201,0.186,0.306,0.289,0.273,0.151,0.093,south,13.7,Yes
2019/05/21,03:30,0.199,0.188,0.304,0.287,0.275,0.154,0.093,south,12.8,Yes
2019/05/21,03:40,0.201,0.188,0.305,0.286,0.272,0.152,0.093,south,13.5,Yes
2019/05/21,03:50,0.200,0.188,0.305,0.285,0.274,0.153,0.093,south,14.0,Yes
2019/05/21,04:00,0.201,0.188,0.305,0.287,0.273,0.153,0.093,south,14.4,Yes
2019/05/21,04:10,0.199,0.187,0.304,0.286,0.274,0.153,0.093,south,14.2,Yes
2019/05/21,04:20,0.200,0.188,0.304,0.287,0.273,0.153,0.094,south,13.3,Yes
2019/05/21,04:30,0.199,0.186,0.304,0.284,0.275,0.153,0.093,south,12.6,Yes
2019/05/21,04:40,0.201,0.188,0.304,0.286,0.272,0.153,0.094,south,14.4,Yes
2019/05/21,04:50,0.200,0.188,0.304,0.286,0.275,0.154,0.094,south,14.2,Yes
2019/05/21,05:00,0.201,0.188,0.305,0.288,0.272,0.153,0.095,south,12.9,Yes
2019/05/21,05:10,0.201,0.188,0.304,0.286,0.274,0.153,0.093,south,14.3,Yes
2019/05/21,05:20,0.202,0.188,0.306,0.287,0.274,0.153,0.095,south,13.9,Yes
2019/05/21,05:30,0.201,0.189,0.303,0.287,0.274,0.154,0.095,south,14.2,Yes
2019/05/21,05:40,0.202,0.189,0.305,0.285,0.275,0.155,0.096,south-southeast,13.8,Yes
2019/05/21,05:50,0.202,0.189,0.305,0.287,0.274,0.156,0.095,south-southeast,14.2,Yes
2019/05/21,06:00,0.201,0.190,0.305,0.286,0.274,0.154,0.095,south,14.8,Yes
2019/05/21,06:10,0.201,0.188,0.305,0.288,0.274,0.154,0.095,south,15.3,No
2019/05/21,06:20,0.200,0.187,0.303,0.285,0.274,0.153,0.094,south-southeast,13.7,Yes
2019/05/21,06:30,0.200,0.188,0.303,0.286,0.272,0.153,0.094,south-southeast,14.3,Yes
2019/05/21,06:40,0.199,0.185,0.303,0.283,0.273,0.153,0.093,south,14.7,Yes
2019/05/21,06:50,0.199,0.187,0.302,0.284,0.272,0.152,0.093,south-southeast,12.9,Yes
2019/05/21,07:00,0.199,0.186,0.302,0.283,0.273,0.152,0.092,south-southeast,12.9,Yes
2019/05/21,07:10,0.198,0.186,0.302,0.283,0.271,0.152,0.093,south-southeast,14.0,Yes
2019/05/21,07:20,0.198,0.186,0.301,0.284,0.272,0.152,0.094,south-southeast,13.1,Yes
2019/05/21,07:30,0.200,0.187,0.302,0.283,0.269,0.153,0.094,south-southeast,12.3,Yes
2019/05/21,07:40,0.199,0.186,0.301,0.284,0.273,0.153,0.095,south-southeast,12.7,Yes
2019/05/21,07:50,0.201,0.187,0.302,0.283,0.272,0.153,0.094,south,13.4,Yes
2019/05/21,08:00,0.199,0.187,0.299,0.282,0.271,0.153,0.095,south,12.8,Yes
2019/05/21,08:10,0.199,0.185,0.298,0.280,0.269,0.152,0.094,south,13.4,Yes
2019/05/21,08:20,0.198,0.185,0.297,0.282,0.272,0.152,0.094,south,13.7,Yes
2019/05/21,08:30,0.200,0.184,0.300,0.279,0.270,0.153,0.094,south,15.2,Yes
2019/05/21,08:40,0.198,0.185,0.295,0.279,0.270,0.152,0.094,south,16.7,Yes
2019/05/21,08:50,0.197,0.185,0.293,0.276,0.267,0.151,0.094,south,13.6,Yes
2019/05/21,09:00,0.195,0.184,0.292,0.277,0.269,0.150,0.094,south,14.7,Yes
2019/05/21,09:10,0.196,0.182,0.292,0.274,0.266,0.151,0.093,south-southeast,13.1,Yes
2019/05/21,09:20,0.194,0.182,0.289,0.272,0.267,0.148,0.093,south,14.0,Yes
2019/05/21,09:30,0.194,0.181,0.289,0.271,0.266,0.148,0.092,south-southeast,14.7,Yes
2019/05/21,09:40,0.192,0.181,0.286,0.269,0.267,0.147,0.091,south,14.0,Yes
2019/05/21,09:50,0.193,0.180,0.286,0.268,0.264,0.148,0.092,south,12.8,Yes
2019/05/21,10:00,0.191,0.182,0.286,0.269,0.268,0.145,0.092,south-southeast,11.6,Yes
2019/05/21,10:10,0.193,0.179,0.286,0.267,0.266,0.146,0.092,south-southeast,11.8,Yes
2019/05/21,10:20,0.191,0.181,0.286,0.266,0.266,0.145,0.092,south-southeast,13.6,Yes
2019/05/21,10:30,0.190,0.179,0.285,0.265,0.265,0.144,0.092,south-southeast,12.7,Yes
2019/05/21,10:40,0.187,0.179,0.284,0.266,0.267,0.144,0.093,south-southeast,10.4,Yes
2019/05/21,10:50,0.188,0.180,0.283,0.264,0.264,0.144,0.092,south-southeast,12.9,Yes
2019/05/21,11:00,0.186,0.178,0.283,0.263,0.266,0.143,0.093,-,CALM,Yes
2019/05/21,11:10,0.183,0.177,0.281,0.259,0.262,0.142,0.092,south-southeast,7.7,Yes
2019/05/21,11:20,0.183,0.178,0.283,0.261,0.265,0.143,0.093,south-southeast,9.8,Yes
2019/05/21,11:30,0.183,0.180,0.281,0.262,0.264,0.144,0.094,south,9.0,Yes
2019/05/21,11:40,0.183,0.178,0.282,0.261,0.265,0.143,0.093,south,12.1,Yes
2019/05/21,11:50,0.181,0.178,0.282,0.259,0.264,0.144,0.094,south,13.2,Yes
2019/05/21,12:00,0.182,0.178,0.283,0.261,0.266,0.144,0.093,south,10.7,Yes
2019/05/21,12:10,0.182,0.179,0.280,0.258,0.263,0.143,0.093,south,12.9,Yes
2019/05/21,12:20,0.181,0.176,0.283,0.259,0.265,0.144,0.093,south,8.1,Yes
2019/05/21,12:30,0.180,0.178,0.280,0.259,0.263,0.143,0.094,-,CALM,Yes
2019/05/21,12:40,0.179,0.177,0.281,0.259,0.264,0.143,0.094,south,10.7,Yes
2019/05/21,12:50,0.177,0.177,0.279,0.258,0.263,0.143,0.094,south,12.7,Yes
2019/05/21,13:00,0.173,0.173,0.278,0.257,0.262,0.141,0.091,south,12.4,Yes
2019/05/21,13:10,0.170,0.175,0.276,0.256,0.260,0.141,0.092,south,13.2,Yes
2019/05/21,13:20,0.169,0.175,0.278,0.258,0.262,0.141,0.092,south,10.4,Yes
2019/05/21,13:30,0.170,0.174,0.276,0.257,0.262,0.141,0.092,south,9.0,Yes
2019/05/21,13:40,0.166,0.173,0.276,0.254,0.259,0.139,0.091,-,CALM,Yes
2019/05/21,13:50,0.163,0.173,0.271,0.251,0.259,0.139,0.090,southwest,6.2,Yes
2019/05/21,14:00,0.159,0.172,0.273,0.253,0.257,0.137,0.091,west-southwest,4.6,Yes
2019/05/21,14:10,0.160,0.172,0.268,0.250,0.258,0.138,0.090,south-southwest,3.5,Yes
2019/05/21,14:20,0.157,0.171,0.269,0.253,0.256,0.137,0.089,west-northwest,3.5,Yes
2019/05/21,14:30,0.160,0.172,0.269,0.252,0.260,0.138,0.090,west,6.3,Yes
2019/05/21,14:40,0.160,0.171,0.272,0.255,0.258,0.138,0.090,west,6.0,Yes
2019/05/21,14:50,0.161,0.172,0.273,0.254,0.259,0.136,0.089,west,6.2,Yes
2019/05/21,15:00,0.161,0.171,0.272,0.257,0.260,0.137,0.090,west,6.4,Yes
2019/05/21,15:10,0.164,0.172,0.274,0.255,0.261,0.136,0.090,west,5.4,Yes
2019/05/21,15:20,0.164,0.171,0.273,0.259,0.260,0.138,0.090,west,4.8,Yes
2019/05/21,15:30,0.165,0.173,0.274,0.256,0.261,0.137,0.091,west,4.3,Yes
2019/05/21,15:40,0.166,0.172,0.273,0.257,0.262,0.138,0.089,west,3.6,Yes
2019/05/21,15:50,0.167,0.173,0.277,0.257,0.261,0.138,0.090,west,2.5,Yes
2019/05/21,16:00,0.169,0.171,0.276,0.261,0.264,0.138,0.090,west,3.9,Yes
2019/05/21,16:10,0.172,0.173,0.278,0.261,0.261,0.138,0.090,west-northwest,4.4,Yes
2019/05/21,16:20,0.175,0.172,0.276,0.261,0.265,0.138,0.090,west-northwest,2.8,Yes
2019/05/21,16:30,0.176,0.172,0.280,0.261,0.261,0.139,0.090,west-northwest,3.3,Yes
2019/05/21,16:40,0.179,0.172,0.278,0.262,0.266,0.139,0.090,west-northwest,4.0,Yes
2019/05/21,16:50,0.179,0.173,0.281,0.264,0.263,0.140,0.090,west,4.8,Yes
2019/05/21,17:00,0.182,0.172,0.278,0.264,0.265,0.141,0.091,west-northwest,3.6,No
2019/05/21,17:10,0.181,0.173,0.282,0.266,0.265,0.139,0.090,west-northwest,2.7,No
2019/05/21,17:20,0.183,0.174,0.280,0.264,0.265,0.140,0.090,northwest,4.0,No
2019/05/21,17:30,0.182,0.172,0.282,0.265,0.265,0.139,0.090,northwest,3.2,No
2019/05/21,17:40,0.184,0.171,0.279,0.264,0.265,0.139,0.089,west-northwest,2.8,No
2019/05/21,17:50,0.184,0.173,0.282,0.266,0.265,0.139,0.090,northwest,4.0,Yes
2019/05/21,18:00,0.185,0.172,0.281,0.264,0.265,0.141,0.089,northwest,3.6,No
2019/05/21,18:10,0.184,0.172,0.283,0.266,0.265,0.139,0.088,west-northwest,2.4,No
2019/05/21,18:20,0.187,0.172,0.282,0.265,0.264,0.140,0.089,north-northwest,2.0,No
2019/05/21,18:30,0.184,0.171,0.284,0.265,0.266,0.140,0.088,north-northwest,1.8,No
2019/05/21,18:40,0.186,0.171,0.281,0.265,0.265,0.141,0.089,north-northwest,2.4,Yes
2019/05/21,18:50,0.185,0.171,0.283,0.265,0.266,0.141,0.089,north-northwest,2.2,Yes
2019/05/21,19:00,0.186,0.172,0.282,0.266,0.264,0.140,0.090,north-northwest,1.9,No
2019/05/21,19:10,0.186,0.172,0.282,0.265,0.267,0.140,0.089,north-northwest,2.9,Yes
2019/05/21,19:20,0.187,0.171,0.281,0.267,0.264,0.141,0.090,north-northwest,3.3,Yes
2019/05/21,19:30,0.187,0.172,0.283,0.265,0.266,0.141,0.090,north,5.9,No
2019/05/21,19:40,0.186,0.171,0.283,0.267,0.264,0.142,0.089,north-northwest,6.2,No
2019/05/21,19:50,0.187,0.172,0.283,0.265,0.266,0.141,0.090,north-northwest,5.4,No
2019/05/21,20:00,0.185,0.171,0.282,0.268,0.265,0.141,0.089,north-northwest,5.4,Yes
2019/05/21,20:10,0.187,0.173,0.284,0.266,0.268,0.141,0.090,north-northwest,4.6,Yes
2019/05/21,20:20,0.186,0.172,0.283,0.267,0.265,0.142,0.090,north-northwest,4.8,Yes
2019/05/21,20:30,0.188,0.173,0.283,0.266,0.268,0.142,0.090,northwest,3.6,Yes
2019/05/21,20:40,0.187,0.173,0.285,0.268,0.266,0.141,0.090,northwest,3.6,Yes
2019/05/21,20:50,0.187,0.173,0.284,0.267,0.268,0.142,0.091,northwest,4.8,Yes
2019/05/21,21:00,0.188,0.172,0.285,0.269,0.266,0.143,0.091,northwest,4.8,Yes
2019/05/21,21:10,0.187,0.173,0.283,0.266,0.266,0.143,0.091,northwest,4.1,Yes
2019/05/21,21:20,0.188,0.173,0.283,0.267,0.266,0.142,0.091,northwest,2.6,Yes
2019/05/21,21:30,0.187,0.173,0.283,0.267,0.267,0.141,0.091,north-northwest,3.1,Yes
2019/05/21,21:40,0.188,0.173,0.284,0.266,0.266,0.143,0.091,north,3.4,Yes
2019/05/21,21:50,0.186,0.173,0.283,0.267,0.267,0.143,0.090,north,3.5,Yes
2019/05/21,22:00,0.188,0.171,0.283,0.266,0.266,0.142,0.091,north,4.3,Yes
2019/05/21,22:10,0.187,0.172,0.283,0.268,0.264,0.141,0.090,north,4.9,No
2019/05/21,22:20,0.187,0.171,0.282,0.266,0.266,0.141,0.090,north,5.3,No
2019/05/21,22:30,0.187,0.171,0.284,0.266,0.265,0.142,0.090,north,5.2,No
2019/05/21,22:40,0.185,0.173,0.281,0.264,0.268,0.141,0.089,north-northwest,5.2,No
2019/05/21,22:50,0.187,0.171,0.283,0.266,0.265,0.140,0.088,north-northwest,5.9,No
2019/05/21,23:00,0.184,0.172,0.283,0.266,0.266,0.140,0.087,north-northwest,5.6,No
2019/05/21,23:10,0.186,0.170,0.283,0.265,0.263,0.140,0.088,north-northwest,6.2,No
2019/05/21,23:20,0.186,0.171,0.284,0.266,0.266,0.140,0.088,north-northwest,4.8,No
2019/05/21,23:30,0.185,0.171,0.281,0.265,0.263,0.140,0.088,north-northwest,5.9,No
2019/05/21,23:40,0.186,0.170,0.283,0.266,0.265,0.139,0.088,north-northwest,6.6,No
2019/05/21,23:50,0.185,0.170,0.282,0.264,0.265,0.141,0.088,north-northwest,6.3,No
